Location: St Paul
(33.9360°N, 83.4200°W)
Time: 17:42:07
(UTC-04:00)

METEOR-M - Pass Details

Date: 23 March 2019
Orbit: 816 x 819 km, 98.4° (Epoch: 25 April)

Event Time Altitude Azimuth Distance (km) Brightness Sun altitude
Rises 06:52:57 0° 20° (NNE) 3,348 7.7 -9.2°
Reaches altitude 10° 06:55:25 10° 27° (NNE) 2,412 7.1 -8.7°
Maximum altitude 07:00:29 43° 99° (E) 1,127 5.5 -7.7°
Drops below altitude 10° 07:05:31 10° 170° (S) 2,400 6.6 -6.7°
Sets 07:07:58 0° 177° (S) 3,328 7.3 -6.1°
